星链-5552 (STARLINK-5552 )

导读

STARLINK-5552是美国SpaceX公司星链星座中的一颗卫星,于2023年4月27日发射。作为星链低轨互联网星座的组成部分,它运行在近地轨道,旨在为全球提供高速、低延迟的宽带互联网服务。星链计划通过大规模卫星组网,实现覆盖偏远地区的网络接入,这颗卫星延续了星链星座的技术设计,助力扩展星座的服务覆盖范围与网络容量。

Basic Information
目录编号:
56339
目录名称:
STARLINK-5552
国际标识:
2023-058Y
轨道中心:
EARTH
卫星名称:
星链-5552
卫星全名:
星链-5552 (STARLINK-5552 )
卫星状态:
在轨 (已飞行1145 天)
发射日期:
2023-04-27 UTC
国别 :
美国 (US)
星等 :
--
Orbit Information
数据来源 国际轨道数据 AOE轨道数据
星历时间 2026-06-15T02:07:51+0800
9小时前
查看轨道信息
2026-06-10T11:00:00+0800
5天前
查看轨道信息
半长轴 6927.718km 6927.624km
偏心率 0.000215 0.0001246
轨道倾角 97.361° 97.385°
近地点辐角 75.893° 71.282°
升交点赤经 164.943° 160.526°
平近点角 284.254° 46.050°
近地点 548.091km 548.623km
远地点 551.071km 550.351km
周期 95.641分钟 95.639分钟
每日圈数 15.056274 15.056582
Detailed Information
固有亮度:
5
最大亮度:
2.5
卫星平台:
Starlink v1.5
覆盖范围:
全球
运营商:
太空探索技术公司
运营商所在国:
美国
制造商(研发单位):
太空探索技术公司
制造商所在国:
美国
使用方式:
暂无
Satellite Introduction
星链(Starlink)计划是由太空探索技术公司(SpaceX)提出的一个巨型低轨卫星互联网星座项目,计划在2019年至2024年间在太空搭建由约1.2万颗卫星组成的“星链”网络,其中1584颗将部署在地球上空550千米处的近地轨道,并从2020年开始工作。该卫星仍在工作。
2D Orbit Map
3D Orbit Map
Orbit Altitude Analysis Chart
Orbit Inclination Analysis Chart
Orbit Comprehensive Analysis Chart
View Comprehensive Chart